TimeEST,TemperatureF,Dew PointF,Humidity,Sea Level PressureIn,VisibilityMPH,Wind Direction,Wind SpeedMPH,Gust SpeedMPH,PrecipitationIn,Events,Conditions,WindDirDegrees,DateUTC
12:20 AM,35.6,33.8,93,30.41,10.0,NE,6.9,-,N/A,,Partly Cloudy,50,2012-11-14 05:20:00
12:54 AM,37.9,36.0,93,30.42,4.0,NE,10.4,-,N/A,,Mostly Cloudy,50,2012-11-14 05:54:00
1:03 AM,37.4,37.4,100,30.40,2.5,NE,9.2,-,N/A,,Mostly Cloudy,40,2012-11-14 06:03:00
1:10 AM,37.4,35.6,93,30.40,7.0,NE,8.1,-,N/A,,Mostly Cloudy,50,2012-11-14 06:10:00
1:46 AM,37.4,33.8,87,30.40,10.0,ENE,10.4,-,N/A,,Partly Cloudy,60,2012-11-14 06:46:00
1:54 AM,37.0,33.1,86,30.41,10.0,NE,10.4,-,N/A,,Clear,50,2012-11-14 06:54:00
2:54 AM,36.0,28.9,76,30.42,10.0,NE,12.7,-,N/A,,Clear,50,2012-11-14 07:54:00
3:54 AM,35.1,27.0,72,30.43,10.0,NE,11.5,20.7,N/A,,Clear,50,2012-11-14 08:54:00
4:54 AM,34.0,25.0,70,30.44,10.0,NE,8.1,-,N/A,,Clear,40,2012-11-14 09:54:00
5:54 AM,33.1,25.0,72,30.45,10.0,NE,8.1,-,N/A,,Clear,40,2012-11-14 10:54:00
6:54 AM,33.1,24.1,70,30.47,10.0,NNE,8.1,-,N/A,,Clear,30,2012-11-14 11:54:00
7:54 AM,35.1,24.1,64,30.49,10.0,NNE,12.7,18.4,N/A,,Clear,30,2012-11-14 12:54:00
8:54 AM,37.9,25.0,60,30.49,10.0,ENE,19.6,24.2,N/A,,Clear,60,2012-11-14 13:54:00
9:54 AM,39.9,26.1,58,30.50,10.0,NE,11.5,-,N/A,,Clear,50,2012-11-14 14:54:00
10:54 AM,43.0,26.1,51,30.48,10.0,NE,16.1,20.7,N/A,,Clear,50,2012-11-14 15:54:00
11:54 AM,45.0,27.0,49,30.46,10.0,NE,8.1,-,N/A,,Clear,50,2012-11-14 16:54:00
12:54 PM,46.0,27.0,47,30.43,10.0,ENE,10.4,-,N/A,,Clear,60,2012-11-14 17:54:00
1:54 PM,46.9,27.0,46,30.41,10.0,NE,10.4,-,N/A,,Clear,40,2012-11-14 18:54:00
2:54 PM,46.9,27.0,46,30.38,10.0,ENE,8.1,-,N/A,,Clear,60,2012-11-14 19:54:00
3:54 PM,46.9,28.0,48,30.38,10.0,ENE,10.4,-,N/A,,Clear,60,2012-11-14 20:54:00
4:54 PM,43.0,28.0,56,30.38,10.0,ENE,10.4,-,N/A,,Clear,60,2012-11-14 21:54:00
5:54 PM,43.0,28.0,56,30.38,10.0,NNE,6.9,-,N/A,,Partly Cloudy,30,2012-11-14 22:54:00
6:54 PM,41.0,28.9,62,30.40,10.0,ENE,5.8,-,N/A,,Partly Cloudy,60,2012-11-14 23:54:00
7:54 PM,39.9,28.9,65,30.41,10.0,NE,8.1,-,N/A,,Scattered Clouds,50,2012-11-15 00:54:00
8:54 PM,41.0,28.9,62,30.41,10.0,NE,6.9,-,N/A,,Mostly Cloudy,50,2012-11-15 01:54:00
9:54 PM,41.0,28.9,62,30.42,10.0,NE,6.9,-,N/A,,Mostly Cloudy,50,2012-11-15 02:54:00
10:54 PM,41.0,28.9,62,30.40,10.0,NE,11.5,-,N/A,,Mostly Cloudy,50,2012-11-15 03:54:00
11:54 PM,39.0,28.9,67,30.37,10.0,ENE,12.7,-,N/A,,Clear,60,2012-11-15 04:54:00